Theta_e
283 277 271 276 278 279 278 278 277 280 284 282 281 281 283 287 287 287 288 288 289 290 292 294 294 295 296 298 300 299 300 306 316 323 322 323 323 328 328 329 331 331 332 330
274 268 280 282 282 280 278 278 277 280 283 282 281 280 284 286 285 282 284 285 286 288 289 292 292 292 293 295 297 300 302 304 309 318 321 322 325 328 329 329 329 330 330 330
277 279 284 282 280 276 276 275 276 277 281 282 279 278 280 282 283 283 284 284 284 285 286 288 290 291 291 292 294 297 298 302 313 317 319 319 321 323 326 324 328 328 329 329
277 282 281 280 277 278 273 281 281 279 275 271 279 269 277 280 280 281 282 282 282 284 286 288 289 289 290 292 293 295 296 303 312 314 318 316 316 317 320 325 327 327 328 328
275 279 279 275 280 282 277 282 279 278 275 275 269 271 272 277 275 277 280 281 282 283 286 287 288 289 291 291 293 295 304 306 307 309 312 316 314 317 319 322 325 326 326 327
276 283 281 281 283 283 283 276 275 273 272 264 267 269 268 271 274 276 279 281 281 283 286 290 291 289 289 292 295 300 301 302 303 304 307 312 315 316 316 320 323 324 326 327
274 273 279 283 279 281 279 268 260 261 261 262 266 272 266 275 276 276 277 279 281 283 286 289 288 288 292 296 298 300 302 302 305 305 306 308 311 312 317 320 321 323 324 324
265 268 271 281 279 274 273 273 265 260 262 266 270 266 272 279 278 278 279 280 281 282 284 289 290 292 293 295 296 295 298 297 298 300 303 303 305 309 310 315 320 320 323 322
268 267 279 280 283 279 272 269 277 271 265 266 268 272 276 277 276 276 277 278 279 281 283 287 290 291 292 293 293 294 296 296 297 297 299 299 300 303 303 303 305 303 304 305
272 269 272 276 282 279 273 276 267 270 262 258 262 258 265 270 272 274 275 276 277 280 282 286 287 288 290 291 292 293 294 293 294 295 295 296 296 297 297 298 299 302 300 299
272 273 271 277 270 274 272 269 271 272 272 265 262 263 274 273 274 273 274 276 278 279 281 284 286 287 288 289 289 290 290 291 291 292 293 293 293 293 294 294 295 296 295 295
278 273 271 269 278 280 275 275 275 270 267 271 269 267 277 276 275 275 275 276 278 280 281 283 284 285 286 286 287 287 288 288 289 290 290 290 291 291 291 291 291 293 292 292
278 267 267 270 275 278 275 278 277 276 275 270 267 268 278 276 275 276 275 276 277 279 280 281 282 283 284 284 285 285 286 286 287 288 287 287 288 288 288 290 290 290 290 290
282 275 267 266 270 273 273 276 276 274 266 269 270 271 274 273 273 274 275 276 277 278 278 279 279 281 282 283 284 284 284 285 286 285 285 285 285 286 286 287 287 288 289 288
274 262 271 271 272 273 275 272 273 269 272 270 272 272 273 274 274 274 276 276 276 276 277 277 278 279 280 282 283 284 284 284 285 284 284 284 285 285 285 285 285 286 286 286
276 262 267 263 275 276 276 278 274 273 271 269 272 273 278 278 277 275 275 276 275 275 276 277 278 278 279 280 281 283 283 283 284 283 283 284 284 284 284 283 283 284 284 284
270 263 259 261 269 268 267 270 269 271 270 271 270 275 278 276 275 274 274 275 275 276 276 276 277 278 279 280 281 280 281 283 282 282 283 283 283 282 282 282 282 282 282 283
263 259 258 264 262 260 271 276 273 270 274 271 274 274 278 278 278 277 276 275 275 276 276 276 277 278 279 280 280 281 281 281 281 280 281 282 282 281 281 281 281 281 281 281
275 263 258 267 267 266 272 273 273 271 273 277 275 275 277 279 280 278 277 277 276 277 277 276 277 278 279 279 280 280 280 280 280 280 280 280 280 280 280 280 280 280 281 280
273 270 262 256 259 260 271 273 275 274 266 276 276 275 276 277 272 274 276 277 276 277 277 276 276 276 276 277 279 279 278 278 278 279 279 280 280 280 279 280 279 280 280 280
253 253 257 252 257 265 272 275 275 264 270 276 276 275 274 274 275 276 276 276 276 276 275 275 274 273 273 275 277 276 275 275 277 278 279 279 280 280 279 279 279 278 278 278
263 259 256 252 256 263 274 274 271 274 276 277 276 276 275 275 275 275 274 274 274 273 273 273 272 271 270 271 274 274 272 272 275 276 276 276 277 278 278 277 277 276 276 276
263 267 264 268 269 274 274 276 277 278 276 276 276 276 275 274 272 271 272 271 270 268 270 270 270 270 268 268 268 269 268 269 271 272 273 272 273 276 276 274 275 275 275 274
267 267 266 266 268 271 274 275 277 277 277 277 277 276 275 272 270 270 269 269 267 266 266 264 266 266 265 265 265 263 265 266 267 268 270 272 271 271 271 274 274 273 272 272
268 268 266 267 268 266 271 273 276 275 273 272 270 272 273 274 272 271 269 267 266 265 263 261 262 263 262 262 262 261 262 264 267 268 268 269 269 269 271 273 271 273 272 273
268 269 269 270 273 275 274 275 273 272 271 271 271 268 268 270 273 270 267 265 264 263 263 263 263 262 262 262 261 261 261 264 265 267 268 267 268 268 269 274 276 283 283 283
Wind_Speed
3 5 2 6 7 8 11 17 22 20 18 20 17 22 21 18 16 17 20 17 14 13 10 13 12 10 10 13 16 9 8 8 4 3 4 4 6 5 6 7 14 14 12 12
7 3 6 5 8 7 11 21 23 18 9 11 18 22 25 22 6 7 12 9 9 8 8 13 11 9 7 8 14 9 8 5 6 4 5 3 5 3 5 6 11 12 14 14
3 6 6 3 10 8 7 11 16 19 17 18 21 15 8 4 2 11 13 12 11 12 13 13 13 9 8 7 8 13 8 8 3 7 3 1 1 2 4 3 6 10 12 14
7 4 4 9 6 5 12 8 18 22 16 8 7 8 4 10 11 16 17 16 15 16 14 12 14 10 8 9 5 5 6 6 7 4 4 5 4 4 4 4 6 10 9 15
8 4 5 6 7 10 11 17 22 21 15 11 7 3 3 6 14 23 21 23 23 20 18 19 13 10 9 8 7 7 7 8 2 1 3 3 3 2 2 4 8 9 10 15
8 4 3 5 12 12 11 10 16 2 2 2 4 2 2 6 13 20 20 20 20 22 24 20 15 6 9 6 6 6 6 5 5 3 1 2 3 3 2 4 6 8 9 8
9 4 4 4 8 5 16 7 6 9 6 6 4 4 4 2 10 13 20 20 20 20 20 17 14 8 2 3 3 4 5 6 3 0 2 4 5 4 3 6 5 8 8 6
5 11 4 7 2 8 8 3 0 7 5 12 4 3 3 3 14 15 16 18 18 19 19 14 11 7 5 6 6 5 4 6 4 5 3 3 4 3 3 2 6 6 5 3
3 8 6 3 4 3 10 8 6 6 5 4 4 4 5 18 19 19 18 17 17 17 17 12 12 9 8 7 8 6 5 5 6 6 4 3 3 3 0 3 5 5 7 6
3 8 4 8 6 5 6 5 7 4 7 7 7 4 6 21 25 20 20 20 17 16 16 12 9 10 9 9 8 9 7 7 7 7 5 3 5 4 5 5 6 4 7 8
4 2 9 2 2 3 7 6 3 2 2 4 6 5 6 20 19 19 17 16 16 15 14 12 9 9 8 9 9 8 8 8 8 6 5 6 6 8 7 6 6 6 7 10
3 2 7 9 4 1 5 7 3 3 6 4 3 5 14 17 15 15 15 14 14 13 12 10 10 9 10 10 9 8 8 9 7 7 7 8 10 9 8 9 8 10 11 11
1 3 6 10 5 3 6 14 10 5 3 3 5 6 11 15 16 15 15 15 14 12 11 11 11 12 11 10 9 9 8 9 8 8 9 11 10 10 10 10 9 12 11 11
3 2 6 6 6 2 6 11 10 5 2 9 4 12 14 17 19 17 15 14 13 12 13 13 13 12 11 10 9 9 10 9 9 9 11 11 10 11 10 11 12 12 11 11
4 3 3 7 11 4 6 5 8 5 7 3 12 13 10 17 15 15 14 14 15 15 15 14 13 12 13 12 12 11 10 10 8 12 12 11 9 12 12 12 14 13 13 12
1 3 1 6 5 7 5 5 6 4 6 4 11 5 13 12 13 16 15 15 14 13 14 15 16 15 14 14 13 10 10 10 10 12 12 10 12 12 12 14 13 13 13 12
2 2 4 6 6 4 5 5 2 3 2 3 6 6 13 7 15 16 17 16 15 15 15 15 16 17 16 15 11 11 11 10 13 13 11 11 13 14 10 12 14 13 14 11
4 4 2 4 5 3 7 4 4 5 4 3 4 6 8 7 4 13 15 15 18 18 17 16 14 14 13 12 12 11 12 13 14 13 13 11 11 11 11 13 12 12 10 11
4 4 2 1 2 7 4 4 4 3 4 1 3 4 4 9 7 10 15 13 12 11 11 10 10 10 11 13 11 12 14 12 13 12 12 11 10 11 11 12 10 8 9 10
6 5 5 3 3 5 4 2 3 3 4 4 1 2 4 7 5 3 9 11 11 11 10 10 10 10 11 13 10 11 12 12 13 10 10 9 9 10 10 9 9 7 8 9
3 4 5 2 4 9 5 4 4 7 6 5 4 1 2 2 1 3 5 7 8 8 10 10 9 10 11 11 9 12 11 12 9 8 9 10 9 8 7 7 7 6 8 8
8 8 5 3 3 8 6 4 6 4 2 5 4 4 3 3 2 1 4 5 7 7 9 10 9 10 11 12 9 10 11 9 8 6 7 8 7 5 4 8 5 4 5 7
3 8 6 10 8 3 7 5 3 5 6 6 6 4 6 6 3 2 2 5 5 4 4 6 5 5 8 9 10 8 10 10 9 7 8 7 7 6 5 4 3 3 4 4
5 4 3 5 4 6 6 4 4 6 5 6 6 7 6 4 5 4 4 3 3 4 5 4 5 6 7 8 8 5 8 8 6 7 9 8 7 6 5 3 3 3 4 4
5 5 6 7 7 4 7 7 7 5 4 3 2 4 7 7 5 4 3 3 3 3 2 2 3 4 6 7 8 7 7 7 4 2 3 5 3 4 4 4 2 3 1 3
8 10 8 9 9 8 7 13 10 10 9 8 8 2 2 4 7 4 3 2 1 2 3 2 3 3 5 5 7 9 9 8 7 6 6 5 4 4 3 2 3 9 11 15
Wind_Direction
15 32 241 263 219 245 279 277 282 279 282 284 282 276 287 284 280 286 276 272 274 274 267 265 264 263 241 202 213 253 258 238 230 211 215 204 213 197 193 184 192 189 189 179
16 232 220 269 267 255 261 282 288 287 263 289 287 284 287 290 328 9 5 356 333 316 307 286 268 263 244 216 191 215 221 218 226 202 218 167 192 191 198 201 208 202 190 189
287 255 319 264 296 291 248 266 289 282 307 293 274 280 279 87 93 8 0 346 335 323 312 310 301 261 259 225 213 175 221 225 197 233 214 159 111 98 156 215 213 206 202 201
250 276 299 304 265 290 307 253 297 294 310 301 44 295 35 345 348 347 344 341 330 321 314 305 301 291 266 249 225 228 203 232 221 214 212 179 193 184 171 186 198 187 207 213
258 313 1 311 297 331 268 312 290 287 283 289 318 246 13 9 347 340 337 336 330 326 318 306 284 278 286 271 227 206 190 190 171 199 271 207 214 210 163 167 189 186 211 220
252 312 254 243 295 295 315 305 317 20 136 328 261 152 28 16 335 325 327 327 326 324 321 309 295 286 277 255 189 172 155 108 64 8 313 251 271 239 223 195 210 203 205 206
331 284 284 260 307 317 353 342 349 358 7 238 282 292 227 18 357 331 324 325 326 326 322 318 315 314 229 151 115 115 146 139 154 79 342 351 271 303 301 256 229 223 205 200
34 335 5 344 344 295 339 31 293 310 317 297 338 276 265 311 357 335 327 327 330 334 329 341 355 25 68 49 41 50 46 39 24 26 11 360 307 271 247 320 242 285 189 184
359 278 302 199 286 65 311 3 287 256 234 290 284 289 325 341 349 345 338 338 338 336 334 347 360 24 36 31 35 30 38 21 21 25 15 12 342 328 208 81 72 100 44 42
242 290 242 295 357 352 149 301 357 335 350 312 308 315 287 337 336 342 342 341 340 338 339 340 5 11 26 26 30 31 30 38 31 35 23 24 21 22 46 52 61 88 83 77
141 212 288 346 27 283 351 355 337 231 317 299 305 307 326 343 336 334 337 340 337 340 341 339 3 16 19 26 31 35 34 41 43 37 36 43 41 36 52 56 64 61 79 79
210 245 279 251 234 143 144 2 297 303 311 256 249 290 9 335 335 333 339 341 343 347 337 349 7 21 27 28 20 34 35 44 41 49 55 54 49 52 54 58 51 64 68 54
152 310 324 349 24 9 24 347 340 282 276 289 315 297 18 339 350 348 349 351 350 348 357 10 19 24 25 27 26 35 39 49 46 54 60 55 52 55 58 59 65 66 70 67
208 227 186 206 222 71 312 337 355 323 356 311 290 304 341 2 352 352 357 358 355 359 11 20 22 20 22 26 30 36 41 44 52 56 61 58 54 56 59 60 64 67 69 77
94 205 297 265 266 174 242 280 346 359 327 334 313 326 344 3 355 348 356 6 9 12 19 20 22 24 21 23 30 32 37 41 50 66 59 56 61 62 61 64 63 64 62 61
54 269 26 294 302 209 249 291 357 310 317 323 320 324 1 3 1 6 5 4 12 13 19 23 24 26 25 22 26 29 34 43 55 62 59 56 58 64 60 58 64 64 63 60
67 91 49 275 340 9 337 233 200 243 307 265 354 315 332 343 14 7 358 5 19 21 20 22 27 25 19 18 16 29 34 44 52 54 56 59 59 56 64 64 59 56 55 57
129 90 97 273 4 14 235 196 163 159 235 271 284 309 335 339 4 17 9 6 8 10 13 14 12 16 13 17 26 36 40 43 50 48 47 47 59 61 57 62 61 58 58 55
154 114 22 38 262 289 331 152 179 151 279 227 275 327 337 331 312 27 10 7 9 9 6 9 7 5 18 21 18 36 45 47 50 45 40 38 42 51 54 58 51 52 69 65
83 58 118 51 125 213 240 157 133 118 309 180 194 348 326 328 46 337 348 356 6 10 16 9 8 14 26 13 18 43 44 43 36 33 46 42 42 56 55 60 58 54 55 65
35 6 164 185 235 285 245 159 159 81 235 162 153 106 31 79 227 310 345 358 4 6 8 12 19 31 20 2 17 44 41 28 7 17 36 46 37 44 54 61 50 45 61 63
171 146 205 79 49 294 176 94 182 187 107 145 148 155 127 150 165 352 359 5 9 7 7 11 22 23 14 11 19 33 36 347 359 8 37 47 40 43 47 67 50 49 74 79
294 189 182 179 214 214 195 216 215 163 150 174 159 173 163 174 229 318 290 325 343 1 17 16 21 35 22 13 17 28 359 349 354 7 23 22 21 20 22 56 76 77 71 91
247 173 201 54 281 217 205 211 197 186 184 162 158 163 173 175 183 217 266 301 339 338 350 349 3 29 23 10 22 7 347 342 360 20 12 13 17 3 4 27 35 65 54 55
196 124 180 266 270 316 249 222 188 178 135 131 100 145 179 164 203 193 198 244 284 314 340 3 359 20 12 357 1 353 352 351 3 26 18 27 31 18 10 17 46 53 6 118
185 187 173 221 212 168 218 185 166 161 186 181 151 192 237 165 188 172 203 175 201 288 336 352 0 18 358 355 354 351 350 356 5 6 2 357 356 3 33 51 20 75 81 72